User: anonymous   Login
Location: D�derode
(51.8092°N, 10.1065°E)
Time: 00:05:53
(UTC+00:00)
Language:

BREEZE-M DEB (TANK) - Orbit

View from above orbital plane
View from above orbital plane
View from above satellite
View from above satellite

Ground track
Ground track

The orbit data is extracted from the following two-line orbital elements,

1 35875U 09050C   21060.51778393  .00001846  00000-0  67584-3 0  9996
2 35875  49.3106 223.1026 5993090 118.0434 314.2170  4.02016145165390
Epoch (UTC): 01 March 2021 12:25:36
Eccentricity: 0.5993090
inclination: 49.3106°
perigee height: 316 km
apogee height: 20342 km
right ascension of ascending node: 223.1026°
argument of perigee: 118.0434°
revolutions per day: 4.02016145
mean anomaly at epoch: 314.2170°
orbit number at epoch: 16539

The dashed part of the orbit path shows where the satellite is in the earth's shadow,  

DLR